TimeAKDT,TemperatureF,Dew PointF,Humidity,Sea Level PressureIn,VisibilityMPH,Wind Direction,Wind SpeedMPH,Gust SpeedMPH,PrecipitationIn,Events,Conditions,WindDirDegrees,DateUTC
12:53 AM,-2.9,-7.1,82,30.22,10.0,SSW,9.2,-,N/A,,Scattered Clouds,210,2013-05-19 08:53:00
1:53 AM,-5.1,-9.0,83,30.24,10.0,SSW,10.4,-,N/A,,Scattered Clouds,200,2013-05-19 09:53:00
2:53 AM,-7.1,-11.0,83,30.25,10.0,SSW,11.5,-,N/A,,Scattered Clouds,200,2013-05-19 10:53:00
3:53 AM,-9.0,-13.0,83,30.27,10.0,SSW,6.9,-,N/A,,Scattered Clouds,210,2013-05-19 11:53:00
4:53 AM,-11.9,-15.0,86,30.27,10.0,South,5.8,-,N/A,,Scattered Clouds,190,2013-05-19 12:53:00
5:53 AM,-8.0,-13.0,79,30.28,10.0,SSE,6.9,-,N/A,,Partly Cloudy,150,2013-05-19 13:53:00
6:53 AM,-5.1,-9.0,83,30.30,10.0,SW,3.5,-,N/A,,Partly Cloudy,220,2013-05-19 14:53:00
7:53 AM,-0.9,-6.0,79,30.30,10.0,South,5.8,-,N/A,,Partly Cloudy,180,2013-05-19 15:53:00
8:53 AM,10.0,1.9,70,30.30,10.0,South,10.4,-,N/A,,Partly Cloudy,190,2013-05-19 16:53:00
9:53 AM,10.9,5.0,77,30.31,10.0,South,6.9,-,N/A,,Partly Cloudy,170,2013-05-19 17:53:00
10:53 AM,17.1,9.0,71,30.32,10.0,SSW,6.9,-,N/A,,Partly Cloudy,200,2013-05-19 18:53:00
11:53 AM,19.9,12.0,71,30.32,10.0,SSW,11.5,-,N/A,,Clear,200,2013-05-19 19:53:00
12:53 PM,21.9,14.0,72,30.34,10.0,SSW,11.5,-,N/A,,Clear,200,2013-05-19 20:53:00
1:53 PM,24.1,15.1,69,30.34,10.0,SSW,12.7,-,N/A,,Clear,200,2013-05-19 21:53:00
2:53 PM,26.1,17.1,69,30.35,10.0,South,9.2,-,N/A,,Clear,190,2013-05-19 22:53:00
3:53 PM,27.0,18.0,69,30.36,10.0,South,8.1,-,N/A,,Clear,180,2013-05-19 23:53:00
4:53 PM,26.1,19.0,75,30.36,10.0,SE,9.2,-,N/A,,Partly Cloudy,130,2013-05-20 00:53:00
5:53 PM,25.0,19.0,78,30.37,10.0,SSE,8.1,-,N/A,,Clear,150,2013-05-20 01:53:00
6:53 PM,23.0,17.1,78,30.37,10.0,SE,9.2,-,N/A,,Clear,140,2013-05-20 02:53:00
7:53 PM,21.9,16.0,78,30.37,10.0,SSE,9.2,-,N/A,,Clear,150,2013-05-20 03:53:00
8:53 PM,18.0,12.9,81,30.37,10.0,SE,8.1,-,N/A,,Clear,140,2013-05-20 04:53:00
9:53 PM,18.0,12.0,78,30.38,10.0,South,11.5,-,N/A,,Mostly Cloudy,170,2013-05-20 05:53:00
10:53 PM,21.0,15.1,78,30.38,10.0,SSE,12.7,-,N/A,,Mostly Cloudy,160,2013-05-20 06:53:00
11:53 PM,24.1,18.0,77,30.38,10.0,SSW,15.0,-,N/A,,Mostly Cloudy,210,2013-05-20 07:53:00